StationID,Date,MaxTemp,MinTemp,Precipitation,Snowfall,SnowDepth
"USC00509398","1997-12-01",30.02,15.08,56.00,76.00,533.00
"USC00509398","1997-12-02",24.98,21.92,36.00,51.00,559.00
"USC00509398","1997-12-03",24.08,-7.96,0.00,0.00,533.00
"USC00509398","1997-12-04",21.92,-16.96,15.00,20.00,533.00
"USC00509398","1997-12-05",35.06,21.92,0.00,0.00,508.00
"USC00509398","1997-12-06",30.02,14.00,0.00,0.00,483.00
"USC00509398","1997-12-07",21.92,6.98,25.00,41.00,508.00
"USC00509398","1997-12-08",21.92,15.08,69.00,114.00,610.00
"USC00509398","1997-12-09",26.06,6.08,0.00,0.00,584.00
"USC00509398","1997-12-10",39.92,24.08,0.00,0.00,559.00
"USC00509398","1997-12-11",35.96,24.98,0.00,0.00,533.00
"USC00509398","1997-12-12",32.00,12.02,51.00,51.00,559.00
"USC00509398","1997-12-13",14.00,-11.92,13.00,23.00,584.00
"USC00509398","1997-12-14",14.00,-11.92,8.00,13.00,584.00
"USC00509398","1997-12-15",-0.04,-16.96,0.00,0.00,584.00
"USC00509398","1997-12-16",-5.98,-25.06,15.00,20.00,559.00
"USC00509398","1997-12-17",5.00,-20.02,0.00,0.00,559.00
"USC00509398","1997-12-18",33.08,3.02,0.00,0.00,533.00
"USC00509398","1997-12-19",33.08,19.94,0.00,0.00,533.00
"USC00509398","1997-12-20",33.08,5.00,0.00,0.00,533.00
"USC00509398","1997-12-21",14.00,1.94,0.00,0.00,533.00
"USC00509398","1997-12-22",21.02,1.94,0.00,0.00,533.00
"USC00509398","1997-12-23",24.08,17.06,211.00,272.00,787.00
"USC00509398","1997-12-24",32.00,24.08,107.00,173.00,914.00
"USC00509398","1997-12-25",26.96,10.04,0.00,0.00,864.00
"USC00509398","1997-12-26",23.00,15.08,13.00,20.00,838.00
"USC00509398","1997-12-27",21.02,-2.02,0.00,0.00,813.00
"USC00509398","1997-12-28",19.04,15.08,18.00,23.00,787.00
"USC00509398","1997-12-29",21.02,8.06,71.00,114.00,889.00
"USC00509398","1997-12-30",8.06,-20.92,0.00,0.00,838.00
"USC00509398","1997-12-31",-4.00,-29.02,0.00,0.00,813.00
"USC00509398","1998-01-01",15.08,-5.98,8.00,10.00,813.00
"USC00509398","1998-01-02",10.94,-11.02,5.00,8.00,787.00
"USC00509398","1998-01-03",6.98,-4.00,0.00,0.00,787.00
"USC00509398","1998-01-04",10.94,-0.04,0.00,0.00,762.00
"USC00509398","1998-01-05",10.94,1.04,0.00,0.00,762.00
"USC00509398","1998-01-06",15.08,3.02,0.00,0.00,737.00
"USC00509398","1998-01-07",21.02,14.00,0.00,0.00,711.00
"USC00509398","1998-01-08",24.98,19.04,41.00,46.00,737.00
"USC00509398","1998-01-09",23.00,19.94,0.00,0.00,737.00
"USC00509398","1998-01-10",24.98,19.94,0.00,0.00,737.00
"USC00509398","1998-01-11",24.08,-5.08,0.00,0.00,737.00
"USC00509398","1998-01-12",23.00,-2.92,0.00,0.00,737.00
"USC00509398","1998-01-13",19.94,15.08,0.00,0.00,711.00
"USC00509398","1998-01-14",28.04,17.06,0.00,0.00,711.00
"USC00509398","1998-01-15",26.06,17.96,0.00,0.00,711.00
"USC00509398","1998-01-16",26.06,15.98,15.00,13.00,711.00
"USC00509398","1998-01-17",23.00,15.98,0.00,0.00,711.00
"USC00509398","1998-01-18",23.00,15.98,0.00,0.00,711.00
"USC00509398","1998-01-19",28.04,6.08,0.00,0.00,711.00
"USC00509398","1998-01-20",21.92,12.02,0.00,0.00,686.00
"USC00509398","1998-01-21",23.00,12.02,0.00,0.00,686.00
"USC00509398","1998-01-22",24.08,10.94,0.00,0.00,686.00
"USC00509398","1998-01-23",23.00,12.02,0.00,0.00,686.00
"USC00509398","1998-01-24",15.08,1.94,0.00,0.00,686.00
"USC00509398","1998-01-25",24.98,6.08,15.00,25.00,711.00
"USC00509398","1998-01-26",28.04,17.96,3.00,8.00,711.00
"USC00509398","1998-01-27",28.94,17.96,51.00,76.00,762.00
"USC00509398","1998-01-28",37.94,19.94,0.00,0.00,737.00
"USC00509398","1998-01-29",30.02,8.06,0.00,0.00,737.00
"USC00509398","1998-01-30",30.02,12.02,0.00,0.00,737.00
"USC00509398","1998-01-31",39.02,26.06,56.00,64.00,787.00
"USC00509398","1998-02-01",33.08,21.02,5.00,0.00,762.00
"USC00509398","1998-02-02",33.08,24.08,0.00,0.00,762.00
"USC00509398","1998-02-03",35.06,24.98,0.00,0.00,762.00
"USC00509398","1998-02-04",35.06,26.06,0.00,0.00,737.00
"USC00509398","1998-02-05",37.94,28.04,0.00,0.00,737.00
"USC00509398","1998-02-06",32.00,12.02,0.00,0.00,737.00
"USC00509398","1998-02-07",33.98,15.98,0.00,0.00,737.00
"USC00509398","1998-02-08",26.96,8.06,0.00,0.00,737.00
"USC00509398","1998-02-09",32.00,19.94,0.00,0.00,711.00
"USC00509398","1998-02-10",37.04,17.96,0.00,0.00,711.00
"USC00509398","1998-02-11",37.04,24.98,0.00,0.00,711.00
"USC00509398","1998-02-12",35.06,19.94,8.00,13.00,711.00
"USC00509398","1998-02-13",33.08,12.92,0.00,0.00,711.00
"USC00509398","1998-02-14",24.98,8.06,0.00,0.00,711.00
"USC00509398","1998-02-15",28.04,8.96,0.00,0.00,711.00
"USC00509398","1998-02-16",33.98,24.08,0.00,0.00,711.00
"USC00509398","1998-02-17",33.98,24.08,0.00,0.00,711.00
"USC00509398","1998-02-18",41.00,24.98,0.00,0.00,711.00
"USC00509398","1998-02-19",37.04,19.04,0.00,0.00,711.00
"USC00509398","1998-02-20",33.08,19.94,0.00,0.00,686.00
"USC00509398","1998-02-21",33.98,15.08,0.00,0.00,686.00
"USC00509398","1998-02-22",32.00,14.00,0.00,0.00,686.00
"USC00509398","1998-02-23",39.02,26.96,0.00,0.00,686.00
"USC00509398","1998-02-24",41.00,21.92,0.00,0.00,686.00
"USC00509398","1998-02-25",37.04,26.96,0.00,0.00,686.00
"USC00509398","1998-02-26",33.98,24.08,61.00,76.00,762.00
"USC00509398","1998-02-27",33.08,17.96,0.00,0.00,762.00
"USC00509398","1998-02-28",32.00,1.94,0.00,0.00,737.00
"USC00509398","1998-03-01",30.02,-0.04,0.00,0.00,
"USC00509398","1998-03-02",26.96,-9.04,0.00,0.00,
"USC00509398","1998-03-03",26.96,-5.08,0.00,0.00,
"USC00509398","1998-03-04",30.02,5.00,0.00,0.00,
"USC00509398","1998-03-05",33.98,1.94,0.00,0.00,
"USC00509398","1998-03-06",35.96,3.02,0.00,0.00,
"USC00509398","1998-03-07",35.96,1.04,0.00,0.00,
"USC00509398","1998-03-08",33.08,12.02,0.00,0.00,
"USC00509398","1998-03-09",35.06,12.02,0.00,0.00,
"USC00509398","1998-03-10",33.98,8.06,0.00,0.00,
"USC00509398","1998-03-11",42.08,10.04,0.00,0.00,
"USC00509398","1998-03-12",44.96,26.06,0.00,0.00,
"USC00509398","1998-03-13",46.94,17.96,0.00,0.00,
"USC00509398","1998-03-14",46.04,28.04,0.00,0.00,
"USC00509398","1998-03-15",46.04,24.08,0.00,0.00,
"USC00509398","1998-03-16",46.04,28.04,0.00,0.00,
"USC00509398","1998-03-17",39.92,33.08,0.00,0.00,
"USC00509398","1998-03-18",42.08,33.08,43.00,0.00,
"USC00509398","1998-03-19",48.02,32.00,0.00,0.00,
"USC00509398","1998-03-20",48.02,35.06,0.00,0.00,
"USC00509398","1998-03-21",51.98,26.96,0.00,0.00,
"USC00509398","1998-03-22",51.98,19.94,0.00,0.00,
"USC00509398","1998-03-23",39.92,33.08,53.00,0.00,
"USC00509398","1998-03-24",37.94,33.08,64.00,0.00,
"USC00509398","1998-03-25",44.96,28.04,0.00,0.00,
"USC00509398","1998-03-26",41.00,28.04,0.00,0.00,
"USC00509398","1998-03-27",41.00,26.96,0.00,0.00,
"USC00509398","1998-03-28",33.08,28.04,122.00,165.00,
"USC00509398","1998-03-29",42.98,28.94,0.00,0.00,
"USC00509398","1998-03-30",42.98,24.98,0.00,0.00,
"USC00509398","1998-03-31",33.98,17.06,0.00,0.00,
"USC00509398","1998-04-01",46.04,28.04,,,559.00
"USC00509398","1998-04-02",39.92,28.04,8.00,,559.00
"USC00509398","1998-04-03",44.96,32.00,0.00,0.00,533.00
"USC00509398","1998-04-04",46.04,32.00,13.00,61.00,508.00
"USC00509398","1998-04-05",46.94,28.94,0.00,0.00,508.00
"USC00509398","1998-04-06",48.92,30.02,0.00,0.00,483.00
"USC00509398","1998-04-07",46.94,28.04,0.00,0.00,483.00
"USC00509398","1998-04-08",44.96,30.02,20.00,0.00,483.00
"USC00509398","1998-04-09",42.98,32.00,46.00,10.00,483.00
"USC00509398","1998-04-10",39.92,33.08,46.00,64.00,483.00
"USC00509398","1998-04-11",44.96,33.08,0.00,0.00,483.00
"USC00509398","1998-04-12",44.06,24.08,0.00,0.00,483.00
"USC00509398","1998-04-13",39.02,28.04,28.00,5.00,483.00
"USC00509398","1998-04-14",33.98,32.00,259.00,76.00,559.00
"USC00509398","1998-04-15",46.94,32.00,28.00,0.00,508.00
"USC00509398","1998-04-16",50.00,33.98,18.00,0.00,483.00
"USC00509398","1998-04-17",55.94,33.98,0.00,0.00,457.00
"USC00509398","1998-04-18",51.08,28.94,0.00,0.00,432.00
"USC00509398","1998-04-19",53.06,28.94,0.00,0.00,406.00
"USC00509398","1998-04-20",51.98,28.04,3.00,0.00,381.00
"USC00509398","1998-04-21",53.96,26.96,0.00,0.00,356.00
"USC00509398","1998-04-22",51.98,26.06,0.00,0.00,330.00
"USC00509398","1998-04-23",55.94,26.06,0.00,0.00,305.00
"USC00509398","1998-04-24",59.00,28.94,0.00,0.00,279.00
"USC00509398","1998-04-25",57.02,26.06,0.00,0.00,254.00
"USC00509398","1998-04-26",53.06,32.00,0.00,0.00,229.00
"USC00509398","1998-04-27",53.06,35.06,76.00,0.00,203.00
"USC00509398","1998-04-28",39.92,33.08,97.00,0.00,203.00
"USC00509398","1998-04-29",37.94,33.08,122.00,38.00,203.00
"USC00509398","1998-04-30",42.08,30.92,0.00,0.00,178.00
"USC00509398","1998-05-01",42.08,32.00,28.00,0.00,152.00
"USC00509398","1998-05-02",50.00,32.00,130.00,0.00,127.00
"USC00509398","1998-05-03",37.94,32.00,140.00,38.00,127.00
"USC00509398","1998-05-04",46.04,30.92,0.00,0.00,102.00
"USC00509398","1998-05-05",46.94,35.06,18.00,0.00,51.00
"USC00509398","1998-05-06",42.98,33.08,61.00,,0.00
"USC00509398","1998-05-07",51.98,32.00,51.00,,
"USC00509398","1998-05-08",44.06,32.00,25.00,,
"USC00509398","1998-05-09",46.04,35.96,28.00,,
"USC00509398","1998-05-10",46.94,33.08,23.00,,
"USC00509398","1998-05-11",44.06,33.08,81.00,0.00,
"USC00509398","1998-05-12",48.02,33.08,10.00,0.00,
"USC00509398","1998-05-13",55.94,28.04,0.00,0.00,
"USC00509398","1998-05-14",59.00,26.06,0.00,0.00,
"USC00509398","1998-05-15",42.08,33.98,91.00,0.00,0.00
"USC00509398","1998-05-16",50.00,37.04,89.00,0.00,0.00
"USC00509398","1998-05-17",55.94,32.00,0.00,0.00,0.00
"USC00509398","1998-05-18",55.94,35.96,66.00,0.00,0.00
"USC00509398","1998-05-19",48.02,37.94,25.00,0.00,0.00
"USC00509398","1998-05-20",53.96,35.06,0.00,0.00,0.00
"USC00509398","1998-05-21",55.94,37.04,0.00,0.00,0.00
"USC00509398","1998-05-22",60.08,39.02,147.00,0.00,0.00
"USC00509398","1998-05-23",51.98,35.06,97.00,0.00,0.00
"USC00509398","1998-05-24",62.06,30.02,0.00,0.00,0.00
"USC00509398","1998-05-25",62.96,44.06,0.00,0.00,0.00
"USC00509398","1998-05-26",57.92,42.08,5.00,0.00,0.00
"USC00509398","1998-05-27",64.04,42.08,0.00,0.00,0.00
"USC00509398","1998-05-28",68.00,46.04,0.00,0.00,0.00
"USC00509398","1998-05-29",73.94,46.04,0.00,0.00,0.00
"USC00509398","1998-05-30",,,,0.00,0.00
"USC00509398","1998-05-31",,,,0.00,0.00
"USC00509398","1998-06-01",48.92,33.98,91.00,0.00,0.00
"USC00509398","1998-06-02",59.00,32.00,48.00,0.00,0.00
"USC00509398","1998-06-03",69.08,35.06,0.00,0.00,0.00
"USC00509398","1998-06-04",64.04,46.04,41.00,0.00,0.00
"USC00509398","1998-06-05",55.94,46.04,38.00,0.00,0.00
"USC00509398","1998-06-06",60.08,46.04,48.00,0.00,0.00
"USC00509398","1998-06-07",62.96,48.92,145.00,0.00,0.00
"USC00509398","1998-06-08",62.06,50.00,43.00,0.00,0.00
"USC00509398","1998-06-09",53.96,37.94,46.00,0.00,0.00
"USC00509398","1998-06-10",57.02,44.06,30.00,0.00,0.00
"USC00509398","1998-06-11",55.04,44.96,53.00,0.00,0.00
"USC00509398","1998-06-12",51.98,44.06,86.00,0.00,0.00
"USC00509398","1998-06-13",57.92,42.98,3.00,0.00,0.00
"USC00509398","1998-06-14",66.02,41.00,5.00,0.00,0.00
"USC00509398","1998-06-15",71.96,48.92,0.00,0.00,0.00
"USC00509398","1998-06-16",71.96,42.98,0.00,0.00,0.00
"USC00509398","1998-06-17",73.94,50.00,0.00,0.00,0.00
"USC00509398","1998-06-18",78.98,41.00,0.00,0.00,0.00
"USC00509398","1998-06-19",73.94,51.08,0.00,0.00,0.00
"USC00509398","1998-06-20",60.08,46.04,61.00,0.00,0.00
"USC00509398","1998-06-21",51.08,44.96,178.00,0.00,0.00
"USC00509398","1998-06-22",60.98,35.96,13.00,0.00,0.00
"USC00509398","1998-06-23",73.04,37.04,0.00,0.00,0.00
"USC00509398","1998-06-24",66.02,48.92,25.00,0.00,0.00
"USC00509398","1998-06-25",64.04,51.08,5.00,0.00,0.00
"USC00509398","1998-06-26",75.02,48.92,0.00,0.00,0.00
"USC00509398","1998-06-27",75.92,48.02,0.00,0.00,0.00
"USC00509398","1998-06-28",73.04,51.98,0.00,0.00,0.00
"USC00509398","1998-06-29",80.06,44.96,0.00,0.00,0.00
"USC00509398","1998-06-30",82.04,48.02,0.00,0.00,0.00
"USC00509398","1998-07-01",75.92,55.04,23.00,0.00,0.00
"USC00509398","1998-07-02",62.96,51.08,8.00,0.00,0.00
"USC00509398","1998-07-03",71.96,50.00,0.00,0.00,0.00
"USC00509398","1998-07-04",75.02,53.96,30.00,0.00,0.00
"USC00509398","1998-07-05",66.92,53.96,8.00,0.00,0.00
"USC00509398","1998-07-06",64.04,48.02,163.00,0.00,0.00
"USC00509398","1998-07-07",57.02,48.02,38.00,0.00,0.00
"USC00509398","1998-07-08",64.94,48.02,41.00,0.00,0.00
"USC00509398","1998-07-09",64.04,48.02,5.00,0.00,0.00
"USC00509398","1998-07-10",69.98,42.08,0.00,0.00,0.00
"USC00509398","1998-07-11",62.06,46.04,0.00,0.00,0.00
"USC00509398","1998-07-12",59.00,50.00,61.00,0.00,0.00
"USC00509398","1998-07-13",71.96,42.08,0.00,0.00,0.00
"USC00509398","1998-07-14",80.96,44.96,0.00,0.00,0.00
"USC00509398","1998-07-15",69.08,51.98,61.00,0.00,0.00
"USC00509398","1998-07-16",64.04,51.98,18.00,0.00,0.00
"USC00509398","1998-07-17",69.98,48.02,0.00,0.00,0.00
"USC00509398","1998-07-18",69.08,50.00,0.00,0.00,0.00
"USC00509398","1998-07-19",68.00,50.00,0.00,0.00,0.00
"USC00509398","1998-07-20",73.94,48.02,0.00,0.00,0.00
"USC00509398","1998-07-21",73.04,46.94,0.00,0.00,0.00
"USC00509398","1998-07-22",64.04,48.92,5.00,0.00,0.00
"USC00509398","1998-07-23",57.92,48.92,86.00,0.00,0.00
"USC00509398","1998-07-24",57.92,51.98,33.00,0.00,0.00
"USC00509398","1998-07-25",59.00,46.94,112.00,0.00,0.00
"USC00509398","1998-07-26",60.08,46.94,102.00,0.00,0.00
"USC00509398","1998-07-27",60.08,48.92,104.00,0.00,0.00
"USC00509398","1998-07-28",64.94,50.00,15.00,0.00,0.00
"USC00509398","1998-07-29",71.06,39.02,0.00,0.00,0.00
"USC00509398","1998-07-30",73.04,42.98,0.00,0.00,0.00
"USC00509398","1998-07-31",77.00,42.98,0.00,0.00,0.00
"USC00509398","1998-08-01",78.98,44.96,3.00,0.00,0.00
"USC00509398","1998-08-02",69.98,55.04,0.00,0.00,0.00
"USC00509398","1998-08-03",60.08,51.08,48.00,0.00,0.00
"USC00509398","1998-08-04",57.92,51.08,0.00,0.00,0.00
"USC00509398","1998-08-05",55.94,51.98,203.00,0.00,0.00
"USC00509398","1998-08-06",57.92,48.02,211.00,0.00,0.00
"USC00509398","1998-08-07",62.96,46.04,89.00,0.00,0.00
"USC00509398","1998-08-08",55.94,46.04,127.00,0.00,0.00
"USC00509398","1998-08-09",59.00,48.02,71.00,0.00,0.00
"USC00509398","1998-08-10",64.94,46.04,0.00,0.00,0.00
"USC00509398","1998-08-11",57.92,44.06,0.00,0.00,0.00
"USC00509398","1998-08-12",57.92,39.92,0.00,0.00,0.00
"USC00509398","1998-08-13",68.00,46.04,0.00,0.00,0.00
"USC00509398","1998-08-14",68.00,39.92,0.00,0.00,0.00
"USC00509398","1998-08-15",57.92,46.94,8.00,0.00,0.00
"USC00509398","1998-08-16",60.98,50.00,282.00,0.00,0.00
"USC00509398","1998-08-17",60.98,46.04,0.00,0.00,0.00
"USC00509398","1998-08-18",62.06,35.06,0.00,0.00,0.00
"USC00509398","1998-08-19",64.94,32.00,0.00,0.00,0.00
"USC00509398","1998-08-20",55.94,44.96,193.00,0.00,0.00
"USC00509398","1998-08-21",51.98,46.04,152.00,0.00,0.00
"USC00509398","1998-08-22",60.98,48.02,13.00,0.00,0.00
"USC00509398","1998-08-23",55.94,46.94,53.00,0.00,0.00
"USC00509398","1998-08-24",57.02,46.04,28.00,0.00,0.00
"USC00509398","1998-08-25",53.96,46.04,94.00,0.00,0.00
"USC00509398","1998-08-26",57.02,42.08,33.00,0.00,0.00
"USC00509398","1998-08-27",48.92,42.98,51.00,0.00,0.00
"USC00509398","1998-08-28",59.00,33.98,5.00,0.00,0.00
"USC00509398","1998-08-29",60.98,37.94,0.00,0.00,0.00
"USC00509398","1998-08-30",57.02,42.08,20.00,0.00,0.00
"USC00509398","1998-08-31",64.04,44.06,3.00,0.00,0.00
"USC00509398","1998-09-01",62.06,46.04,5.00,0.00,0.00
"USC00509398","1998-09-02",62.06,32.00,0.00,0.00,0.00
"USC00509398","1998-09-03",62.96,32.00,3.00,0.00,0.00
"USC00509398","1998-09-04",62.96,35.96,23.00,0.00,0.00
"USC00509398","1998-09-05",62.96,35.06,0.00,0.00,0.00
"USC00509398","1998-09-06",55.04,37.04,0.00,0.00,0.00
"USC00509398","1998-09-07",60.08,42.08,0.00,0.00,0.00
"USC00509398","1998-09-08",55.94,30.02,0.00,0.00,0.00
"USC00509398","1998-09-09",62.06,42.98,13.00,0.00,0.00
"USC00509398","1998-09-10",64.94,35.96,0.00,0.00,0.00
"USC00509398","1998-09-11",59.00,39.02,0.00,0.00,0.00
"USC00509398","1998-09-12",55.94,46.04,38.00,0.00,0.00
"USC00509398","1998-09-13",55.94,44.96,79.00,0.00,0.00
"USC00509398","1998-09-14",55.94,42.08,5.00,0.00,0.00
"USC00509398","1998-09-15",51.98,35.96,3.00,0.00,0.00
"USC00509398","1998-09-16",46.04,39.92,18.00,0.00,0.00
"USC00509398","1998-09-17",48.92,44.06,61.00,0.00,0.00
"USC00509398","1998-09-18",51.08,44.06,0.00,0.00,0.00
"USC00509398","1998-09-19",48.02,42.08,127.00,0.00,0.00
"USC00509398","1998-09-20",51.98,44.06,107.00,0.00,0.00
"USC00509398","1998-09-21",53.96,42.98,0.00,0.00,0.00
"USC00509398","1998-09-22",48.02,42.98,173.00,0.00,0.00
"USC00509398","1998-09-23",44.96,42.98,155.00,0.00,0.00
"USC00509398","1998-09-24",46.04,37.94,107.00,0.00,0.00
"USC00509398","1998-09-25",46.94,39.02,427.00,0.00,0.00
"USC00509398","1998-09-26",48.02,30.92,18.00,,0.00
"USC00509398","1998-09-27",59.00,35.96,0.00,0.00,0.00
"USC00509398","1998-09-28",48.02,28.04,0.00,0.00,0.00
"USC00509398","1998-09-29",50.00,33.08,0.00,0.00,0.00
"USC00509398","1998-09-30",50.00,39.92,0.00,0.00,0.00
"USC00509398","1998-10-01",51.98,33.98,0.00,0.00,
"USC00509398","1998-10-02",48.02,26.06,0.00,0.00,
"USC00509398","1998-10-03",46.94,21.02,0.00,0.00,
"USC00509398","1998-10-04",51.98,30.92,0.00,0.00,
"USC00509398","1998-10-05",51.98,35.96,0.00,0.00,
"USC00509398","1998-10-06",46.94,30.92,0.00,0.00,
"USC00509398","1998-10-07",42.98,30.02,0.00,0.00,
"USC00509398","1998-10-08",48.02,28.04,0.00,0.00,
"USC00509398","1998-10-09",46.04,19.94,0.00,0.00,
"USC00509398","1998-10-10",44.96,19.04,0.00,0.00,
"USC00509398","1998-10-11",39.02,26.06,0.00,0.00,
"USC00509398","1998-10-12",44.96,26.06,0.00,0.00,
"USC00509398","1998-10-13",37.94,23.00,0.00,0.00,
"USC00509398","1998-10-14",35.96,33.08,33.00,25.00,25.00
"USC00509398","1998-10-15",30.02,39.92,0.00,0.00,25.00
"USC00509398","1998-10-16",42.08,33.98,0.00,0.00,
"USC00509398","1998-10-17",35.96,30.92,46.00,38.00,25.00
"USC00509398","1998-10-18",33.98,32.00,48.00,25.00,25.00
"USC00509398","1998-10-19",35.06,33.08,64.00,0.00,
"USC00509398","1998-10-20",37.94,32.00,30.00,0.00,
"USC00509398","1998-10-21",37.94,30.92,0.00,0.00,
"USC00509398","1998-10-22",37.94,28.04,0.00,0.00,
"USC00509398","1998-10-23",44.96,35.06,41.00,0.00,
"USC00509398","1998-10-24",44.06,33.98,91.00,0.00,
"USC00509398","1998-10-25",33.98,28.04,25.00,25.00,25.00
"USC00509398","1998-10-26",32.00,21.92,0.00,0.00,25.00
"USC00509398","1998-10-27",35.06,17.06,0.00,0.00,25.00
"USC00509398","1998-10-28",33.98,17.06,0.00,0.00,25.00
"USC00509398","1998-10-29",30.02,19.04,0.00,0.00,25.00
"USC00509398","1998-10-30",33.08,28.04,0.00,0.00,
"USC00509398","1998-10-31",33.98,28.04,0.00,0.00,
"USC00509398","1998-11-01",33.98,30.02,43.00,25.00,25.00
"USC00509398","1998-11-02",35.96,35.96,18.00,0.00,25.00
"USC00509398","1998-11-03",41.00,32.00,0.00,0.00,
"USC00509398","1998-11-04",35.96,26.06,0.00,0.00,
"USC00509398","1998-11-05",33.08,17.96,0.00,0.00,
"USC00509398","1998-11-06",37.94,19.04,0.00,0.00,
"USC00509398","1998-11-07",30.92,17.96,0.00,0.00,
"USC00509398","1998-11-08",26.96,10.04,0.00,0.00,
"USC00509398","1998-11-09",28.94,19.94,0.00,0.00,
"USC00509398","1998-11-10",26.06,15.08,0.00,0.00,
"USC00509398","1998-11-11",26.06,15.98,0.00,0.00,
"USC00509398","1998-11-12",21.02,6.98,0.00,0.00,
"USC00509398","1998-11-13",26.06,8.06,0.00,5.00,0.00
"USC00509398","1998-11-14",26.06,15.98,0.00,0.00,0.00
"USC00509398","1998-11-15",21.92,6.98,0.00,0.00,0.00
"USC00509398","1998-11-16",15.98,1.04,0.00,0.00,0.00
"USC00509398","1998-11-17",26.06,14.00,13.00,13.00,
"USC00509398","1998-11-18",32.00,24.08,5.00,5.00,25.00
"USC00509398","1998-11-19",35.96,21.92,53.00,76.00,102.00
"USC00509398","1998-11-20",24.98,6.98,0.00,0.00,102.00
"USC00509398","1998-11-21",15.98,-2.92,0.00,0.00,102.00
"USC00509398","1998-11-22",17.96,12.92,5.00,5.00,102.00
"USC00509398","1998-11-23",15.98,12.92,0.00,0.00,102.00
"USC00509398","1998-11-24",15.98,12.02,3.00,3.00,102.00
"USC00509398","1998-11-25",17.96,10.04,10.00,15.00,102.00
"USC00509398","1998-11-26",15.08,6.08,28.00,38.00,152.00
"USC00509398","1998-11-27",17.96,-9.04,10.00,13.00,152.00
"USC00509398","1998-11-28",39.92,17.96,0.00,0.00,127.00
"USC00509398","1998-11-29",35.96,24.98,0.00,0.00,127.00
"USC00509398","1998-11-30",32.00,17.96,0.00,0.00,127.00
"USC00509398","1998-12-01",26.96,17.96,0.00,0.00,127.00
"USC00509398","1998-12-02",17.96,-0.04,0.00,0.00,127.00
"USC00509398","1998-12-03",17.96,17.96,91.00,76.00,203.00
"USC00509398","1998-12-04",28.04,15.08,241.00,292.00,483.00
"USC00509398","1998-12-05",24.08,19.04,51.00,76.00,508.00
"USC00509398","1998-12-06",19.94,8.96,0.00,0.00,457.00
"USC00509398","1998-12-07",21.02,5.00,0.00,0.00,432.00
"USC00509398","1998-12-08",19.94,8.96,3.00,5.00,406.00
"USC00509398","1998-12-09",26.96,15.98,28.00,48.00,432.00
"USC00509398","1998-12-10",17.96,5.00,53.00,64.00,457.00
"USC00509398","1998-12-11",19.94,-4.00,0.00,3.00,457.00
"USC00509398","1998-12-12",12.92,3.92,0.00,0.00,432.00
"USC00509398","1998-12-13",8.96,1.04,0.00,0.00,432.00
"USC00509398","1998-12-14",21.02,3.02,13.00,18.00,406.00
"USC00509398","1998-12-15",26.06,14.00,46.00,64.00,457.00
"USC00509398","1998-12-16",14.00,-13.00,20.00,25.00,457.00
"USC00509398","1998-12-17",5.00,-23.08,0.00,0.00,457.00
"USC00509398","1998-12-18",19.94,5.00,0.00,0.00,457.00
"USC00509398","1998-12-19",23.00,12.02,0.00,0.00,432.00
"USC00509398","1998-12-20",28.94,12.02,0.00,0.00,432.00
"USC00509398","1998-12-21",26.96,10.04,0.00,0.00,406.00
"USC00509398","1998-12-22",21.92,14.00,0.00,0.00,406.00
"USC00509398","1998-12-23",32.00,-0.04,0.00,0.00,406.00
"USC00509398","1998-12-24",28.04,21.92,0.00,0.00,381.00
"USC00509398","1998-12-25",28.04,-5.98,0.00,0.00,381.00
"USC00509398","1998-12-26",-5.08,-11.02,0.00,0.00,381.00
"USC00509398","1998-12-27",21.02,-13.00,0.00,0.00,381.00
"USC00509398","1998-12-28",17.96,12.92,0.00,0.00,356.00
"USC00509398","1998-12-29",19.94,10.94,0.00,0.00,356.00
"USC00509398","1998-12-30",15.08,1.94,0.00,0.00,356.00
"USC00509398","1998-12-31",14.00,1.94,0.00,0.00,356.00
"USC00509398","1999-01-01",30.02,14.00,0.00,0.00,356.00
"USC00509398","1999-01-02",30.02,26.06,216.00,279.00,635.00
"USC00509398","1999-01-03",26.96,14.00,0.00,0.00,610.00
"USC00509398","1999-01-04",14.00,10.04,0.00,0.00,584.00
"USC00509398","1999-01-05",10.04,6.98,0.00,0.00,584.00
"USC00509398","1999-01-06",10.04,3.02,0.00,0.00,584.00
"USC00509398","1999-01-07",12.02,-7.06,0.00,0.00,559.00
"USC00509398","1999-01-08",19.94,12.02,5.00,15.00,559.00
"USC00509398","1999-01-09",28.04,15.98,0.00,0.00,533.00
"USC00509398","1999-01-10",28.94,21.92,0.00,0.00,533.00
"USC00509398","1999-01-11",28.04,21.92,8.00,10.00,508.00
"USC00509398","1999-01-12",37.94,24.98,10.00,25.00,533.00
"USC00509398","1999-01-13",37.94,30.02,0.00,0.00,508.00
"USC00509398","1999-01-14",30.02,17.96,0.00,0.00,508.00
"USC00509398","1999-01-15",26.06,24.08,46.00,76.00,584.00
"USC00509398","1999-01-16",24.98,-14.08,20.00,51.00,610.00
"USC00509398","1999-01-17",3.02,-20.02,0.00,0.00,584.00
"USC00509398","1999-01-18",-7.06,-27.94,0.00,0.00,584.00
"USC00509398","1999-01-19",-5.98,-27.94,0.00,0.00,584.00
"USC00509398","1999-01-20",-5.08,-18.04,0.00,0.00,559.00
"USC00509398","1999-01-21",-0.04,-20.92,0.00,0.00,559.00
"USC00509398","1999-01-22",15.08,-7.96,41.00,8.00,635.00
"USC00509398","1999-01-23",33.98,14.00,274.00,356.00,940.00
"USC00509398","1999-01-24",33.08,17.96,10.00,20.00,914.00
"USC00509398","1999-01-25",24.08,15.98,0.00,0.00,914.00
"USC00509398","1999-01-26",24.08,10.94,0.00,0.00,889.00
"USC00509398","1999-01-27",12.02,5.00,0.00,0.00,864.00
"USC00509398","1999-01-28",5.00,-2.02,0.00,0.00,838.00
"USC00509398","1999-01-29",3.02,-5.98,0.00,0.00,813.00
"USC00509398","1999-01-30",-0.04,-14.98,0.00,0.00,787.00
"USC00509398","1999-01-31",-11.92,-20.02,5.00,8.00,787.00
"USC00509398","1999-02-01",-5.98,-14.98,28.00,43.00,813.00
"USC00509398","1999-02-02",-7.96,-45.04,0.00,0.00,787.00
"USC00509398","1999-02-03",-11.92,-43.96,0.00,0.00,787.00